#timestamp,LO_Frequency,Hit,StdDev 
1590541215.3,286047004.3,N
1590541235.1,286047004.4,N
1590541255.9,286047004.4,N
1590541275.7,286047001.3,N
1590541295.5,286047002.1,N
1590541315.4,286047001.7,N
1590541335.2,286047002.1,N
1590541355.1,286047001.5,N
1590541356.0,286047001.5,N
1590541375.8,286047003.8,N
1590541395.6,286047002.8,N
1590541415.5,286047002.0,N
1590541435.3,286047004.1,N
1590541455.2,286047004.1,N
1590541475.9,286047004.2,N
1590541495.7,286047004.3,N
1590541515.6,286047004.3,N
1590541535.4,286047004.3,N
1590541555.2,286047003.2,N
1590541575.1,286047005.1,Y
1590541576.0,286047005.1,P
1590541595.8,286047004.2,P
1590541615.7,286047002.1,N
1590541635.5,286047002.5,N
1590541655.3,286047002.5,N
1590541675.2,286047002.4,N
1590541695.0,286047002.8,N
1590541695.9,286047002.8,N
1590541715.7,286047001.5,N
1590541735.6,286047001.4,N
1590541755.4,286046999.8,N
1590541775.3,286046999.8,N
1590541795.1,286047002.3,N
1590541815.8,286047002.0,N
1590541835.7,286047000.3,N
1590541855.5,286046999.9,N
1590541875.4,286047000.7,N
1590541895.2,286047000.0,N
1590541915.0,286046999.7,N
1590541915.9,286046999.7,N
1590541935.8,286047002.8,N
1590541955.6,286047002.2,N
1590541975.4,286047002.4,N
1590541995.3,286047001.9,N
1590542015.1,286047002.2,N
1590542035.9,286047002.5,N
1590542055.7,286047000.0,N
1590542075.5,286047000.2,N
1590542095.4,286047002.6,N
1590542115.2,286047002.6,N
1590542135.0,286046999.7,N
1590542136.0,286046999.7,N
1590542155.8,286047002.0,N
1590542175.6,286047002.8,N
1590542195.5,286047002.1,N
1590542215.3,286047002.2,N
1590542235.1,286047001.7,N
1590542255.9,286047004.1,Y
1590542275.7,286047001.6,P
1590542295.6,286047002.1,P
1590542315.4,286047002.5,P
1590542335.2,286047000.6,N
1590542355.1,286046998.3,N
1590542356.0,286046998.3,N
1590542375.8,286046999.3,N
1590542395.6,286046999.0,N
1590542415.5,286046998.6,N
1590542435.3,286046998.4,N
1590542455.2,286047000.0,N
1590542475.9,286047001.1,N
1590542495.7,286047000.8,N
1590542515.6,286047000.9,N
1590542535.4,286047000.6,N
1590542555.2,286047000.1,N
1590542575.1,286047002.2,N
1590542576.0,286047002.2,N
1590542595.8,286047004.3,Y
1590542615.7,286047001.8,P
1590542635.5,286047002.5,P
1590542655.3,286047002.2,N
1590542675.2,286046999.7,N
1590542695.0,286047000.6,N
1590542695.9,286047000.6,N
1590542715.7,286047000.7,N
1590542735.6,286047000.7,N
1590542755.4,286047000.1,N
1590542775.3,286047000.0,N
1590542795.1,286047000.1,N
1590542796.0,286047000.1,N
1590542815.8,286047000.6,N
1590542835.7,286047000.0,N
1590542855.5,286047000.7,N
1590542875.3,286046998.1,N
1590542895.2,286047001.1,N
1590542915.0,286046998.2,N
1590542915.9,286046998.2,N
1590542935.8,286047000.7,N
1590542955.6,286047001.1,N
1590542975.4,286047000.7,N
1590542995.3,286046999.4,N
1590543015.1,286046999.3,N
1590543035.9,286046999.6,N
1590543055.7,286046998.1,N
1590543075.5,286046996.5,Y
1590543095.4,286046999.3,P
1590543115.2,286046999.6,N
1590543135.0,286046999.1,N
1590543135.9,286046999.1,N
1590543155.8,286046998.9,N
1590543175.6,286047000.3,N
1590543195.5,286047000.3,N
1590543215.3,286047002.1,Y
1590543235.1,286047004.1,P
1590543255.9,286047003.9,N
1590543275.7,286047001.8,N
1590543295.5,286047002.1,N
1590543315.4,286046999.8,N
1590543335.2,286047000.4,N
1590543355.1,286047002.8,N
1590543356.0,286047002.8,N
1590543375.8,286047002.2,N
1590543395.6,286047002.0,N
1590543415.5,286047001.8,N
1590543435.3,286047001.6,N
1590543455.1,286047002.0,N
1590543475.9,286047003.9,Y
1590543495.7,286046999.7,P
1590543515.6,286047002.7,N
1590543535.4,286046999.7,N
1590543555.2,286047000.2,N
1590543575.1,286046998.2,N
1590543576.0,286046998.2,N
1590543595.8,286047000.6,N
1590543615.6,286047000.7,N
1590543635.5,286047002.8,N
1590543655.3,286047002.3,N
1590543675.2,286047002.0,N
1590543695.9,286047002.0,N
1590543715.7,286047002.3,N
1590543735.6,286047002.5,N
1590543755.4,286046999.8,N
1590543775.2,286047000.5,N
1590543795.1,286047000.4,N
1590543796.0,286047000.4,N
1590543815.8,286047000.4,N
1590543835.7,286047002.6,N
1590543855.5,286047002.7,N
1590543875.3,286047002.6,N
1590543895.2,286047002.3,N
1590543915.9,286047002.6,N
1590543935.7,286047002.6,N
1590543955.6,286047002.3,N
1590543975.4,286047002.8,N
1590543995.2,286046999.8,N
1590544015.1,286047002.7,N
1590544016.0,286047002.7,N
1590544035.8,286047004.4,Y
1590544055.7,286047000.1,P
1590544075.5,286047000.2,N
1590544095.3,286047000.5,N
1590544115.2,286047000.6,N
1590544135.0,286046998.3,Y
1590544135.9,286046998.3,P
1590544155.7,286046999.4,N
1590544175.6,286046998.9,N
1590544195.4,286046998.2,N
1590544215.3,286046998.3,N
1590544235.1,286046998.1,N
1590544236.0,286046998.1,N
1590544255.8,286047000.0,N
1590544275.7,286047002.7,Y
1590544295.5,286047001.9,P
1590544315.3,286047000.2,N
1590544335.2,286047000.5,N
1590544355.0,286046999.9,N
1590544355.9,286046999.9,N
1590544375.8,286046999.8,N
1590544395.6,286046999.7,N
1590544415.4,286047000.0,N
1590544435.3,286047000.2,N
1590544455.1,286047002.8,Y
1590544475.8,286047002.2,P
1590544495.7,286046999.8,N
1590544515.5,286047002.6,N
1590544535.4,286047002.0,N
1590544555.2,286047002.6,N
1590544575.0,286046999.7,N
1590544575.9,286046999.7,N
1590544595.8,286047000.5,N
1590544615.6,286046999.3,N
1590544635.4,286046998.6,N
1590544655.3,286046998.6,N
1590544675.1,286047000.8,N
1590544695.9,286046999.1,N
1590544715.7,286046998.1,N
1590544735.5,286046998.8,N
1590544755.4,286046999.5,N
1590544775.2,286046998.8,N
1590544795.0,286046998.3,N
1590544795.9,286046998.3,N
